Weather in Kolobovo

Russia / Ivanovo Oblast     56°42′17″N   41°20′51″E
temp.,
°C
wind,
m/s
gust,
m/s
humid.,
%
clouds,
%
prec.,
mm/h
press.,
hPa
HPBL,
m
16 june, wed
wed1600:00+16ne118912 0.4 100911
03:00+15nne11943 0.6 100911
06:00+17nnw239125 0.0 1009122
09:00+18nnw248995 0.1 1010180
12:00+22nnw5668100 1.8 10101087
15:00+23nnw675264 1.8 10121813
18:00+20nw58480 0.0 1013864
21:00+15nw311610 0.0 1015291
17 june, thu
thu1700:00+12nnw296498 0.0 1017168
03:00+11nw2365100 0.0 101966
06:00+13nnw396169 0.0 1021291
09:00+18nw47375 0.0 1022896
12:00+21nnw58395 0.0 10231603
15:00+21nnw574059 0.0 10231845
18:00+20nnw36525 0.0 10231405
21:00+15w22690 0.0 102414
18 june, fri
fri1800:00+13wsw22760 0.0 102530
03:00+12wnw22915 0.0 102615
06:00+16nw11770 0.0 1027108
09:00+22wsw12530 0.0 1027601
12:00+25wnw223851 0.0 10261792
15:00+26w2339100 0.0 10261785
18:00+24sw355699 0.0 1025683
21:00+18sw227998 0.0 102539
19 june, sat
sat1900:00+17sw268322 0.0 1026102
03:00+15wsw27906 0.0 1026135
06:00+19wsw397837 0.0 1026261
09:00+24wsw46555 0.0 1026734
12:00+28wsw57465 0.0 10251807
15:00+29w56433 0.0 10242314
18:00+26wsw47555 0.0 10241160
21:00+20wsw36783 0.0 102498
20 june, sun
sun2000:00+18wsw36895 0.0 1025118
03:00+16wsw23935 0.0 102564
06:00+20wsw25809 0.0 1025158
09:00+26wsw34576 0.0 1025685
12:00+28wsw334474 0.0 10241912
15:00+29wsw444216 0.0 10222093
18:00+27wsw34550 0.0 1022864
21:00+21wsw22765 0.0 102217